Regional Weather Roundup
Issued by NWS Sioux Falls, SD

Home | Current Version | Previous Version | Text Only | Print | Product List | Glossary On
Versions: 1 2 3 4 5 6 7 8 9 10 11 12 13 14 15 16 17 18 19 20 21 22 23 24 25 26 27 28 29 30 31 32 33 34 35 36 37 38 39 40 41 42 43 44 45 46 47 48 49 50
000
ASUS43 KFSD 242110
RWRFSD

WEATHER ROUNDUP FOR SE SOUTH DAKOTA/SW MINNESOTA/NW IOWA
NATIONAL WEATHER SERVICE SIOUX FALLS SD
400 PM CDT FRI MAR 24 2017

NOTE: "FAIR" INDICATES FEW OR NO CLOUDS BELOW 12,000 FEET WITH NO
SIGNIFICANT WEATHER AND OR OBSTRUCTIONS TO VISIBILITY.


SDZ038>040-050-052>070-242200-
SOUTHEAST SOUTH DAKOTA

CITY           SKY/WX    TMP DP  RH WIND       PRES   REMARKS
BROOKINGS      CLOUDY    37  34  89 N14       30.10S
CHAMBERLAIN    CLOUDY    53  36  54 N12       30.10S
HURON          CLOUDY    47  36  65 NE15      30.12F
MADISON        CLOUDY    37  37 100 NE17      30.09F
MITCHELL       CLOUDY    48  38  68 N17       30.10F
SIOUX FALLS    CLOUDY    42  37  82 N17G24    30.07S
WINNER         FAIR      57  32  38 NE21      30.08S
YANKTON        CLOUDY    45  37  76 N14       30.05F
$$

MNZ071-072-080-081-089-090-097-098-242200-
SOUTHWEST MINNESOTA

CITY           SKY/WX    TMP DP  RH WIND       PRES   REMARKS
FAIRMONT       CLOUDY    41  38  89 N10       30.05R
JACKSON        CLOUDY    41  37  87 N18G26    30.03R
LUVERNE        CLOUDY    39  34  81 N14G21    30.05S
MARSHALL       CLOUDY    40  36  86 N15       30.11F
MONTEVIDEO     CLOUDY    39  37  93 NE12      30.15S
PIPESTONE      CLOUDY    39  34  81 NE16G22   30.07S HAZE
REDWOOD FALLS  CLOUDY    42  35  76 N9        30.10R
TRACY          CLOUDY    41  38  89 N15       30.09F
WINDOM         MOSUNNY   43  39  87 N16G23    30.05R
WORTHINGTON    CLOUDY    41  37  87 N18G25    30.04S
$$

IAZ001>003-012>014-020>022-031-032-NEZ013-014-SDZ071-242200-
NORTHWEST IOWA

CITY           SKY/WX    TMP DP  RH WIND       PRES   REMARKS
CHEROKEE       CLOUDY    42  40  93 N16G22    30.01S
ESTHERVILLE    CLOUDY    40  39  97 N17       30.03R
LE MARS        CLOUDY    43  39  87 N16G22    30.02F
ORANGE CITY    CLOUDY    41  37  87 NE16G22   30.02F
SHELDON        CLOUDY    41  41 100 NE15G24   30.02R
SIOUX CITY     CLOUDY    41  39  93 N16       30.02S
SPENCER        CLOUDY    42  39  89 N15       30.03R
STORM LAKE     CLOUDY    41  39  93 N21       29.98S
$$

ABBREVIATIONS USED IN REMARKS
   TC - TEMPERATURE IN CELSIUS
  WCI - WIND CHILL INDEX
   HX - HEAT INDEX
  VSB - VISIBILITY





USA.gov is the U.S. government's official web portal to all federal, state and local government web resources and services.